Theta_e
309 309 309 309 310 310 310 309 309 309 308 308 309 309 309 309 309 308 305 311 300 293 294 298 299 296 295 294 290 295 292 300 296 291 290 291 291 296 298 304 303 301 300 302 307 303 300 320 318 311 323 327 326 326
309 309 309 309 309 309 309 309 308 308 308 308 308 309 308 308 307 307 302 310 308 298 296 301 303 305 302 300 297 297 295 295 300 295 298 298 295 299 299 295 306 300 305 302 307 308 322 328 326 328 329 327 328 328
309 309 309 309 309 309 309 309 309 308 308 308 308 307 307 307 307 307 305 308 303 296 297 299 299 305 307 306 305 295 297 300 300 306 300 300 298 304 298 301 306 309 311 307 308 317 322 324 325 328 329 329 331 336
309 308 308 309 309 309 309 309 309 309 308 308 307 307 307 307 307 307 305 307 303 297 291 294 305 303 307 307 305 304 301 303 305 304 298 298 299 305 299 301 304 310 312 312 312 323 324 326 328 329 330 333 334 334
309 309 309 309 309 309 308 308 308 308 307 307 307 307 308 307 308 306 308 307 306 296 291 294 301 305 307 306 304 305 302 300 299 296 299 298 305 303 306 305 301 309 309 307 313 315 323 322 326 328 326 327 329 328
309 309 309 309 309 309 308 308 308 308 307 307 307 307 307 308 309 305 298 309 311 305 295 290 301 302 307 305 302 303 302 301 299 299 299 300 308 303 299 300 309 312 318 320 310 313 314 318 318 324 323 323 324 324
308 308 309 309 309 309 308 309 309 308 308 308 308 308 307 308 306 302 298 303 305 306 296 291 295 305 306 304 304 303 304 302 303 301 298 298 304 304 302 297 307 311 313 315 316 314 309 312 313 317 318 319 318 320
308 308 308 308 309 308 308 308 308 309 309 309 309 309 309 308 306 302 307 307 305 300 297 290 292 296 308 301 300 306 301 302 302 301 300 303 305 304 299 304 309 309 313 314 315 315 314 314 315 315 316 318 316 316
308 308 308 308 308 308 308 308 309 309 309 309 309 310 308 305 301 308 307 307 307 299 291 293 289 293 304 303 304 303 303 295 305 298 301 303 296 295 301 305 306 308 309 310 312 313 313 311 310 312 313 314 314 312
308 308 308 308 308 308 308 308 308 308 308 309 309 305 302 308 310 310 304 300 297 298 296 292 298 294 301 301 300 300 302 298 295 299 304 297 295 303 306 306 307 308 309 312 307 305 306 305 308 312 310 313 311 314
308 308 307 307 308 308 308 307 308 308 309 308 303 302 307 314 308 302 297 295 296 293 297 299 302 300 308 300 301 305 300 302 293 295 297 293 292 300 306 308 309 309 309 310 312 313 312 310 308 307 308 311 313 316
308 308 308 308 308 308 307 307 308 309 307 304 303 307 308 305 301 294 292 293 292 288 296 300 303 304 304 308 301 302 298 300 290 302 295 288 296 304 306 307 309 312 312 312 314 313 314 315 314 312 311 313 315 317
307 307 307 308 308 308 308 308 309 308 308 310 306 303 301 302 291 292 290 294 295 299 305 306 302 303 306 307 302 300 295 295 303 295 291 293 299 305 309 309 309 310 311 312 311 312 315 315 316 317 314 315 318 317
307 307 307 308 308 309 308 308 309 310 308 302 298 291 293 292 293 296 298 301 305 303 303 305 307 300 303 301 303 295 299 302 295 291 291 299 304 308 311 311 310 310 312 311 311 313 314 316 315 316 317 319 319 318
307 307 307 309 309 308 308 308 309 313 308 301 301 292 297 302 304 305 306 304 307 309 308 306 306 305 303 301 303 299 296 291 292 294 298 304 308 311 311 311 312 311 311 312 312 312 313 314 313 315 316 318 319 321
307 307 311 308 308 308 307 312 314 316 312 308 304 299 302 301 301 304 305 304 310 308 309 308 302 299 297 299 294 291 291 288 292 300 305 309 311 311 312 313 314 314 314 313 314 316 315 316 315 316 316 317 318 320
306 311 308 308 308 307 310 312 314 306 304 301 299 304 303 303 302 304 307 308 311 309 303 303 297 296 300 293 290 293 291 296 301 304 307 308 309 311 313 312 314 314 314 315 316 316 314 318 318 317 318 317 318 321
310 312 310 308 308 312 315 312 309 304 299 303 301 303 305 307 306 307 308 309 308 307 307 302 304 297 294 292 293 299 303 307 308 309 311 314 315 316 317 315 319 318 316 313 313 317 315 314 311 310 315 317 316 314
308 309 307 308 309 309 308 307 309 300 302 304 305 307 307 308 310 311 311 311 313 312 308 305 299 298 299 304 305 307 309 311 311 313 314 315 318 314 317 318 318 316 315 315 313 311 312 315 312 310 310 311 309 311
307 308 309 309 309 311 305 307 311 304 301 304 306 305 307 307 310 310 309 311 309 308 305 302 303 307 307 311 314 314 314 315 313 311 312 317 312 316 316 315 313 319 312 315 310 304 309 308 307 307 307 308 308 307
311 315 312 314 315 313 309 306 306 306 306 304 308 308 307 308 307 307 309 310 306 305 304 309 311 314 314 317 315 317 317 315 315 315 312 308 311 311 310 311 312 310 308 307 305 305 304 304 305 305 306 305 306 307
316 311 316 317 312 311 309 312 308 309 306 307 307 307 303 302 303 303 308 303 302 307 309 310 313 309 309 310 310 313 316 319 317 310 308 310 309 308 308 308 307 306 306 306 306 305 305 304 304 305 305 305 304 307
312 312 315 314 308 304 303 315 307 307 302 304 307 304 304 304 306 309 300 305 307 314 313 314 317 317 314 314 312 310 311 311 309 309 308 307 309 310 309 309 308 306 305 305 306 305 304 301 303 304 305 305 305 305
307 312 308 309 309 303 312 307 309 307 307 305 305 301 304 307 312 305 301 303 310 313 309 312 310 308 308 310 305 305 306 307 306 307 306 305 305 306 307 307 307 306 305 306 305 304 304 303 301 304 304 304 304 303
303 302 306 294 312 305 302 304 304 303 301 303 301 302 306 310 302 299 298 302 303 305 306 307 307 307 303 304 304 304 307 303 302 303 305 305 304 304 304 304 304 303 303 302 301 300 301 301 301 301 301 301 300 300
295 308 299 306 306 304 304 301 302 302 303 301 303 306 305 304 299 296 298 302 304 305 305 305 305 304 303 303 302 301 302 304 303 301 303 305 303 301 300 299 298 298 301 301 299 297 297 297 296 296 296 297 295 297
299 305 312 317 312 310 308 308 308 304 302 301 304 304 302 296 293 296 302 305 305 307 308 308 305 303 302 301 302 302 303 303 303 301 303 305 302 302 300 297 295 296 299 298 297 296 295 294 294 294 295 296 296 296
312 313 302 303 308 307 301 304 303 302 303 307 306 300 297 296 294 301 302 307 308 308 308 307 307 305 302 301 301 301 301 301 300 301 301 302 301 299 299 299 298 294 298 297 296 296 295 294 294 294 294 294 295 295
310 312 311 306 308 307 307 304 304 306 308 307 305 300 299 304 307 306 308 309 309 308 304 302 302 303 301 300 301 300 299 297 294 292 291 292 293 294 296 297 297 297 297 296 292 294 294 294 294 294 294 293 294 293
308 313 309 304 305 305 306 309 307 309 309 307 306 304 305 306 309 312 310 308 305 303 303 302 301 299 297 297 296 297 298 297 295 292 289 289 291 294 295 295 295 295 295 295 295 295 293 294 294 294 293 292 292 291
311 310 307 307 305 309 310 312 311 310 309 307 308 304 303 305 309 308 307 306 304 303 301 299 299 299 297 296 295 294 293 297 296 294 292 292 293 293 294 294 295 295 295 295 295 294 293 292 292 291 291 290 290 290
311 307 305 303 307 312 314 311 309 307 306 306 305 305 307 307 303 305 307 305 303 300 298 299 298 297 298 298 298 297 294 296 294 293 292 291 292 293 293 294 294 294 294 294 293 293 292 291 290 290 290 289 290 290
309 308 308 306 307 307 311 311 309 307 306 304 305 308 307 303 299 302 308 307 302 300 299 299 299 300 299 298 297 297 297 295 291 288 287 286 285 288 291 293 293 293 293 292 292 292 290 290 290 290 290 290 290 289
Wind_Speed
22 22 22 22 22 22 22 16 16 15 15 16 16 13 12 13 13 7 5 6 4 5 11 19 24 21 15 14 10 5 8 6 8 8 6 7 9 11 15 13 15 10 10 12 11 10 8 21 12 20 4 2 3 6
21 21 21 21 20 19 18 17 15 14 14 14 13 12 8 8 7 7 6 5 4 7 10 19 20 25 24 21 13 10 7 10 7 3 2 3 9 9 13 10 15 14 15 11 11 9 6 8 9 7 5 4 7 8
21 19 18 18 18 19 18 16 15 14 14 12 10 8 10 10 10 9 6 6 2 3 12 16 17 23 25 26 20 14 12 7 5 2 5 3 6 4 4 7 13 16 18 13 13 11 1 8 8 5 7 11 9 18
17 16 16 17 18 17 18 17 14 14 12 12 11 11 12 11 9 8 4 2 2 4 6 12 10 14 18 14 23 20 18 13 9 5 3 4 4 4 4 7 9 6 14 14 13 13 12 12 12 5 11 18 17 20
15 15 15 16 17 16 16 16 15 14 13 12 12 11 11 11 8 9 6 6 5 3 5 12 21 24 23 15 12 16 14 14 7 7 3 3 2 2 2 3 4 5 5 5 7 16 12 11 10 13 18 18 19 19
15 15 15 16 17 16 15 15 16 16 14 13 13 12 12 12 9 6 3 3 7 5 4 8 15 19 8 19 12 13 10 9 6 3 2 2 5 2 3 1 5 6 8 3 5 15 15 15 21 16 19 19 19 18
15 16 16 16 16 16 16 16 17 18 17 17 16 15 14 11 8 4 4 5 11 4 3 7 8 7 11 11 9 8 11 8 3 3 4 3 3 2 1 3 7 8 7 8 9 14 17 22 15 14 19 19 19 18
15 16 17 17 16 16 17 18 19 20 21 20 17 15 14 13 13 9 5 5 4 2 2 5 6 4 11 10 8 8 7 4 4 2 3 4 2 3 2 4 7 7 8 9 11 13 13 12 12 17 23 20 18 17
15 16 16 16 17 17 18 20 22 23 24 23 18 13 6 5 4 1 8 3 3 3 3 3 4 6 8 3 5 5 5 5 7 4 0 2 3 2 3 3 9 8 4 10 12 14 16 17 18 19 18 18 19 19
15 16 16 17 17 19 20 22 23 23 26 24 9 4 3 1 15 9 2 2 3 4 4 6 8 4 3 5 5 5 6 5 3 3 1 4 4 6 9 7 9 8 7 9 16 13 11 12 13 13 12 12 12 11
16 17 18 19 19 21 22 21 22 21 18 2 3 3 8 4 3 3 3 3 2 3 5 6 7 5 7 6 2 5 3 1 3 2 2 3 3 6 9 9 8 8 9 9 10 13 14 12 11 8 8 7 6 6
17 18 19 21 20 19 22 22 16 11 6 7 5 8 5 3 1 3 5 3 4 4 4 5 6 7 2 1 5 2 2 1 4 0 3 3 4 5 5 7 7 5 5 5 5 4 6 7 10 7 6 4 2 6
19 21 21 21 20 18 18 18 14 11 13 5 4 3 5 1 4 5 6 3 2 4 3 6 2 1 4 3 1 2 3 4 4 4 4 1 5 5 2 11 6 4 7 9 9 11 7 11 7 8 8 7 3 6
22 23 22 21 17 18 18 16 13 6 4 3 5 6 4 4 3 5 12 12 9 4 8 6 5 6 2 3 3 6 5 3 5 4 4 1 2 2 3 7 8 2 4 9 8 10 10 19 7 6 5 9 6 6
24 27 24 15 14 21 22 17 10 5 3 4 4 4 4 7 9 11 13 10 2 5 9 7 3 10 7 5 4 3 3 6 7 4 3 2 5 6 7 5 7 9 9 10 12 11 12 13 12 7 9 7 4 6
23 28 2 13 21 24 25 16 5 4 1 2 2 6 9 11 14 14 14 10 15 5 3 6 9 6 9 6 8 8 5 5 2 2 2 1 6 10 11 13 8 7 7 7 7 6 9 9 7 8 7 5 5 5
24 5 17 20 23 26 12 4 3 1 4 5 8 10 10 10 9 12 12 15 11 12 11 6 9 10 5 6 5 3 3 3 4 4 3 4 3 3 7 6 14 6 6 4 6 8 5 7 5 5 5 6 5 5
7 13 17 21 18 15 3 2 6 4 7 7 8 9 10 9 13 14 10 10 11 10 10 11 6 8 7 5 3 1 2 2 0 3 2 3 4 5 2 5 8 9 9 11 2 9 10 10 8 7 7 7 5 7
15 16 22 22 10 6 4 4 5 5 6 9 10 8 8 10 9 10 11 9 11 10 10 7 8 7 8 6 8 8 6 5 4 4 5 7 6 6 7 7 7 7 8 9 10 8 8 10 10 10 9 9 7 6
23 17 15 17 3 6 4 2 3 4 5 6 6 7 8 11 12 12 11 13 12 12 12 9 10 10 10 9 8 7 6 6 6 4 4 4 7 9 8 5 3 4 7 7 9 12 9 9 9 9 7 7 8 9
10 7 10 5 3 5 6 5 4 4 5 5 7 8 8 9 10 13 12 12 12 7 10 9 9 8 10 9 9 9 8 7 6 4 5 7 7 7 7 6 7 6 7 8 8 8 9 9 9 9 8 9 7 8
5 10 5 1 3 4 1 4 4 4 4 5 7 6 6 9 9 9 7 9 6 5 6 5 5 9 10 13 13 12 8 4 2 6 2 2 2 4 6 6 6 7 8 8 7 7 8 9 7 9 8 8 9 8
12 5 4 2 3 3 4 2 3 2 2 3 3 3 4 5 4 3 4 6 3 3 4 3 5 10 10 11 13 16 16 14 10 11 11 9 5 7 6 6 7 7 6 9 9 9 9 10 10 10 8 7 8 8
5 5 5 5 4 3 3 2 3 0 3 2 2 1 2 2 2 4 8 5 5 5 10 12 10 10 10 13 11 11 12 11 11 10 10 10 10 9 10 8 10 12 12 10 10 10 10 10 10 10 10 10 9 8
4 5 2 5 4 3 0 4 5 4 5 3 2 1 3 3 3 4 5 7 9 9 11 12 11 10 10 10 9 10 11 11 11 10 8 8 8 9 10 10 11 12 11 10 11 12 12 12 13 14 14 13 15 14
0 3 1 6 4 4 5 5 4 5 3 4 7 5 4 3 6 5 4 7 7 11 10 11 10 10 9 10 11 10 10 11 11 11 11 9 10 9 10 11 11 11 12 10 11 12 12 12 13 16 14 15 14 14
3 4 2 2 6 1 4 4 3 5 5 5 8 5 3 6 6 3 5 10 7 6 8 9 8 9 10 10 10 10 10 11 12 11 11 10 12 10 10 11 11 10 11 11 11 12 12 13 13 12 12 11 11 11
8 7 18 6 7 9 5 6 9 7 9 7 4 6 4 5 2 2 3 5 7 8 6 6 4 7 10 11 10 10 10 12 13 13 12 9 11 11 12 10 10 9 9 8 9 9 10 11 10 10 10 10 11 12
3 13 7 2 7 6 8 8 10 8 9 8 6 5 4 2 1 3 2 4 5 6 8 9 9 10 10 10 10 10 11 11 14 16 17 12 11 11 11 10 9 9 9 9 7 6 8 9 10 8 12 11 10 11
7 6 5 3 7 6 9 7 8 9 9 9 6 5 3 4 3 3 6 6 7 7 10 10 9 10 10 10 10 10 9 10 10 10 11 11 11 10 9 10 10 10 9 9 9 7 3 9 10 9 10 9 9 10
4 3 4 5 4 8 4 8 7 7 7 8 6 5 6 3 2 2 8 9 9 10 10 9 9 9 9 10 9 8 8 8 13 13 11 9 9 9 9 9 9 8 8 10 9 10 11 11 11 11 12 12 12 11
2 5 7 2 7 6 5 5 4 2 5 4 5 4 3 3 1 1 3 6 7 8 9 10 8 8 9 8 8 7 4 9 9 9 12 9 9 9 10 10 10 11 12 12 12 11 12 13 10 10 10 12 13 14
4 5 4 4 2 5 8 5 3 2 3 4 2 2 1 5 6 3 3 7 8 8 9 10 9 8 9 9 10 8 7 9 11 6 5 2 3 5 9 8 9 11 14 10 10 9 10 10 10 12 12 12 13 14
Wind_Direction
326 326 326 326 326 327 327 329 321 317 311 313 312 310 302 292 278 252 265 217 197 230 271 269 273 276 267 254 255 314 325 234 229 187 180 188 263 279 271 237 209 221 223 234 231 195 249 125 154 232 32 41 321 338
326 326 328 329 331 332 339 342 338 332 327 324 318 322 325 313 291 265 266 250 220 248 270 293 274 264 273 263 273 234 219 268 333 273 239 262 257 306 295 284 260 232 245 244 257 262 227 78 80 108 146 105 22 351
328 331 334 336 336 335 333 335 334 330 326 335 349 328 319 313 290 253 286 307 238 273 268 252 256 251 239 235 235 256 264 241 247 168 299 261 261 349 288 266 323 262 28 242 224 230 205 148 117 108 86 63 55 42
340 340 338 338 341 341 350 355 350 347 348 340 336 328 319 313 308 274 252 248 270 285 281 292 271 271 301 206 209 221 244 271 269 235 246 271 294 59 322 310 299 349 310 332 242 153 116 75 71 33 84 75 57 57
335 335 333 335 337 338 343 348 349 346 344 338 332 325 314 303 299 286 255 252 213 247 302 298 292 269 246 234 213 195 214 238 259 295 342 298 318 328 235 287 290 335 338 331 351 334 113 137 103 83 79 67 63 63
336 332 331 333 336 339 338 340 342 336 326 321 318 313 310 317 326 307 293 236 222 194 279 299 324 309 258 177 195 189 199 222 247 312 3 277 220 326 231 278 9 354 315 257 106 30 24 63 64 71 80 71 75 76
341 342 338 334 337 338 335 331 328 326 323 317 303 292 291 295 290 268 276 318 323 278 262 295 300 318 321 142 182 176 195 194 185 125 229 232 254 17 320 272 17 17 8 106 97 80 47 21 47 51 74 68 72 64
340 338 339 339 338 333 327 321 319 318 316 315 306 288 280 283 271 256 226 223 276 278 293 280 280 285 234 179 172 166 160 124 135 191 262 233 117 267 140 331 107 27 34 63 95 100 102 92 62 57 54 52 56 62
331 330 330 328 323 318 318 324 323 318 315 311 308 287 263 223 238 221 105 139 188 230 274 257 289 326 9 319 285 141 166 192 144 200 205 16 332 6 339 118 88 59 33 97 76 79 75 61 51 44 48 45 45 21
319 316 316 315 312 311 312 315 324 320 310 308 288 235 268 21 119 115 58 211 179 202 229 248 202 285 247 208 259 215 190 137 154 44 161 46 18 330 6 57 91 78 35 98 95 79 71 70 65 62 48 36 31 20
318 316 312 309 307 308 307 315 323 323 296 232 294 283 337 302 182 194 240 233 211 236 219 257 267 249 197 207 269 18 345 344 78 355 58 72 5 356 340 60 91 87 84 83 93 111 116 115 94 71 62 38 9 12
318 313 310 309 309 307 306 313 324 310 344 329 295 276 267 291 278 326 295 275 209 256 254 265 303 320 42 104 48 289 303 311 84 183 66 62 314 13 337 48 55 91 109 128 144 127 133 122 127 122 95 110 10 251
316 313 313 313 310 304 309 316 321 298 280 245 240 287 332 308 335 303 322 326 294 207 287 294 319 245 336 36 54 261 185 78 160 60 57 99 290 275 110 96 57 80 74 62 32 341 77 88 101 140 185 216 236 289
315 314 315 314 308 311 324 321 314 318 279 356 346 349 7 330 305 318 303 293 355 218 280 273 251 143 142 208 17 23 360 349 63 46 60 305 333 262 154 120 137 114 25 83 58 48 75 92 85 34 45 42 86 71
314 312 314 305 319 330 324 316 301 257 274 32 13 340 323 275 267 252 268 278 146 265 277 277 258 41 26 55 32 52 76 58 19 42 57 312 321 351 24 21 84 77 58 47 48 47 64 72 74 88 91 90 52 64
316 307 355 346 343 327 318 303 223 218 300 310 248 339 1 347 1 349 345 350 340 6 296 28 26 41 32 29 17 19 36 31 355 333 320 286 8 25 22 356 355 102 96 86 85 63 51 50 67 65 58 97 85 70
307 256 11 350 330 313 299 272 269 267 6 17 356 9 11 355 20 337 352 347 349 6 27 31 35 34 48 27 36 33 357 317 30 60 24 15 64 22 87 304 51 16 81 88 80 58 16 72 62 67 54 7 51 80
267 323 346 326 327 295 182 258 318 32 10 25 0 27 2 353 3 356 358 2 357 9 43 57 72 35 23 13 145 319 147 234 311 148 190 74 68 70 14 353 22 33 40 70 21 61 35 28 44 18 19 65 20 336
298 304 305 298 307 301 331 27 331 345 20 18 3 28 1 12 352 2 356 31 40 35 43 41 44 34 41 30 34 44 47 47 58 81 100 118 148 165 149 125 94 71 60 50 26 50 59 42 28 11 18 5 0 17
289 279 279 291 196 283 359 345 256 346 11 345 352 37 24 19 19 15 34 29 37 40 38 48 51 48 43 35 36 47 48 39 36 76 76 74 70 60 44 73 85 86 76 62 69 34 32 30 27 1 9 360 10 354
252 360 320 285 190 9 359 348 353 15 344 325 355 56 26 46 38 33 23 28 42 41 44 55 62 56 49 44 41 50 38 47 64 36 28 43 28 42 41 37 43 51 50 39 28 38 45 33 21 351 1 22 351 327
359 324 290 65 341 357 62 17 357 346 324 9 53 50 40 39 37 23 26 43 31 18 357 1 9 59 54 39 28 21 2 341 331 75 145 228 87 38 37 26 37 34 40 39 28 27 33 33 16 345 10 359 346 15
290 211 275 329 5 50 270 244 345 342 63 26 352 56 22 47 66 62 46 4 348 276 229 250 341 46 47 59 47 19 3 358 18 38 13 7 46 346 348 13 24 54 39 40 22 17 12 7 11 335 352 10 345 10
166 309 339 340 349 331 305 165 217 185 30 18 37 24 104 93 105 59 54 13 334 23 23 15 26 28 32 25 30 34 1 1 4 35 18 6 0 26 48 40 44 41 17 15 13 11 1 355 349 349 355 340 6 8
320 326 287 294 218 291 309 10 328 19 347 329 101 171 179 127 94 84 53 17 14 10 20 17 21 21 22 16 17 17 13 1 359 358 33 20 13 11 25 69 58 33 9 17 11 4 2 5 356 357 343 9 12 349
336 172 62 354 357 358 357 10 10 353 332 358 9 28 55 327 66 58 27 353 12 20 22 15 6 355 1 4 3 13 18 16 9 355 351 20 49 37 22 19 22 27 354 18 13 358 2 8 3 350 342 351 354 345
328 17 297 261 276 342 353 343 327 50 43 359 352 9 42 53 49 54 16 16 16 5 351 341 332 349 356 12 9 8 19 20 14 347 334 56 55 36 27 24 32 12 344 22 11 357 10 4 348 339 343 348 347 353
334 309 75 337 289 112 155 295 31 16 4 349 19 28 50 50 79 19 332 320 319 318 313 280 315 18 19 4 6 11 28 20 12 359 348 52 55 48 25 13 19 358 2 37 12 15 11 351 347 349 352 345 9 16
308 31 346 56 18 30 40 50 27 33 360 351 63 45 65 88 245 240 309 311 278 284 321 7 16 21 16 0 22 21 44 34 16 14 4 4 8 12 11 357 1 1 4 357 81 60 18 341 324 351 353 5 8 10
356 110 82 273 53 63 49 60 50 50 63 62 91 110 119 175 212 265 269 283 336 3 23 8 20 26 11 4 20 13 41 60 43 28 360 352 353 359 354 360 2 358 1 344 351 3 50 345 17 18 15 6 14 356
360 25 91 75 50 108 99 94 99 104 100 86 66 80 107 105 300 83 23 360 5 15 19 360 22 38 21 6 16 17 5 53 55 35 15 345 360 1 353 1 359 1 351 337 355 11 18 6 9 11 9 4 5 351
360 19 355 88 146 138 133 159 130 166 125 111 133 152 186 156 275 152 9 12 14 10 15 1 14 34 44 4 23 19 352 56 48 34 24 11 9 5 348 11 0 359 354 352 9 12 17 10 5 4 356 1 1 358
22 40 354 4 327 158 148 118 127 214 177 170 32 91 4 61 54 55 65 36 35 24 7 355 6 35 39 34 20 355 52 91 110 132 164 216 281 315 321 12 1 360 350 10 1 19 10 358 9 7 5 3 3 355